DW5979 Weather Reports


Display with metric or nautical units.
time (UTC)temp
F
wind
direction
speed
MPH
gust
MPH
rain 1hr
in
rain 24hr
in
rain mn
in
humidity
%
barometer
mb
20260508004808 44 116 0.0 2.0 0.00 0.00 0.00 51 1007.3
20260508004304 45 87 3.0 5.0 0.00 0.00 0.00 49 1007.0
20260508003801 45 271 6.0 9.0 0.00 0.00 0.00 45 1006.9
20260508003259 45 350 4.0 5.0 0.00 0.00 0.00 48 1006.9
20260508002755 45 32 0.0 4.0 0.00 0.00 0.00 46 1006.7
20260508002252 46 331 2.0 9.0 0.00 0.00 0.00 45 1006.7
20260508001748 46 284 2.0 6.0 0.00 0.00 0.00 44 1006.7
20260508001243 46 286 5.0 7.0 0.00 0.00 0.00 44 1006.7
20260508000740 46 311 4.0 9.0 0.00 0.00 0.00 44 1006.5
20260508000237 46 309 4.0 10.0 0.00 0.00 0.00 43 1006.5
20260507235733 47 284 5.0 12.0 0.00 0.00 0.00 43 1006.6
20260507235231 47 275 5.0 9.0 0.00 0.00 0.00 43 1006.4
20260507234728 47 311 6.0 9.0 0.00 0.00 0.00 43 1006.4
20260507234224 47 283 4.0 7.0 0.00 0.00 0.00 43 1006.5
20260507233721 48 287 5.0 13.0 0.00 0.00 0.00 41 1006.5
20260507233219 48 315 7.0 8.0 0.00 0.00 0.00 41 1006.5
20260507232716 49 305 3.0 12.0 0.00 0.00 0.00 41 1006.2
20260507232213 50 337 3.0 10.0 0.00 0.00 0.00 40 1006.1
20260507231710 50 306 9.0 14.0 0.00 0.00 0.00 41 1006.0
20260507231207 50 308 4.0 12.0 0.00 0.00 0.00 39 1005.9
20260507230703 50 260 12.0 17.0 0.00 0.00 0.00 39 1005.9
20260507230201 51 300 6.0 13.0 0.00 0.00 0.00 38 1006.0
20260507225700 51 300 4.0 11.0 0.00 0.00 0.00 40 1005.8
20260507225157 51 294 6.0 12.0 0.00 0.00 0.00 39 1005.9
20260507224653 52 315 11.0 14.0 0.00 0.00 0.00 37 1005.9
20260507224149 52 326 6.0 15.0 0.00 0.00 0.00 38 1005.9
20260507223645 52 332 4.0 17.0 0.00 0.00 0.00 38 1005.7
20260507223142 53 326 10.0 18.0 0.00 0.00 0.00 38 1005.6
20260507222639 53 283 10.0 17.0 0.00 0.00 0.00 40 1005.7
20260507222136 53 303 5.0 14.0 0.00 0.00 0.00 39 1005.7
20260507221632 53 314 9.0 17.0 0.00 0.00 0.00 38 1005.8
20260507221128 53 283 6.0 8.0 0.00 0.00 0.00 41 1005.5
20260507220626 53 306 13.0 14.0 0.00 0.00 0.00 38 1005.4
20260507220124 54 289 8.0 20.0 0.00 0.00 0.00 38 1005.5
20260507215619 53 296 10.0 16.0 0.00 0.00 0.00 40 1005.4
20260507215117 52 291 13.0 14.0 0.00 0.00 0.00 38 1005.5
20260507214614 53 271 8.0 15.0 0.00 0.00 0.00 37 1005.3
20260507214110 52 232 11.0 15.0 0.00 0.00 0.00 40 1005.1
20260507213607 52 301 9.0 13.0 0.00 0.00 0.00 39 1005.2
20260507213104 54 306 13.0 18.0 0.00 0.00 0.00 37 1005.5
20260507212600 53 284 15.0 16.0 0.00 0.00 0.00 41 1005.3
20260507212057 54 299 11.0 13.0 0.00 0.00 0.00 42 1005.1
20260507211553 53 294 10.0 13.0 0.00 0.00 0.00 41 1005.1
20260507211049 52 295 7.0 7.0 0.00 0.00 0.00 41 1005.1
20260507210547 53 265 6.0 13.0 0.00 0.00 0.00 40 1005.0
20260507210043 54 269 9.0 18.0 0.00 0.00 0.00 41 1005.0
20260507205540 54 334 4.0 10.0 0.00 0.00 0.00 38 1005.0
20260507205037 53 291 20.0 21.0 0.00 0.00 0.00 40 1005.0
20260507204533 54 262 15.0 17.0 0.00 0.00 0.00 42 1004.7
20260507204031 54 291 15.0 22.0 0.00 0.00 0.00 39 1004.8
20260507203529 54 262 13.0 15.0 0.00 0.00 0.00 42 1004.9
20260507203026 54 288 6.0 20.0 0.00 0.00 0.00 39 1004.8
20260507202521 55 305 12.0 19.0 0.00 0.00 0.00 41 1004.7
20260507202018 54 290 7.0 22.0 0.00 0.00 0.00 39 1004.7
20260507201513 55 284 18.0 19.0 0.00 0.00 0.00 38 1004.6
20260507201010 54 282 12.0 15.0 0.00 0.00 0.00 41 1004.5
20260507200505 55 266 8.0 15.0 0.00 0.00 0.00 39 1004.5
20260507200001 55 289 11.0 16.0 0.00 0.00 0.00 42 1004.5
20260507195459 56 316 13.0 21.0 0.00 0.00 0.00 40 1004.6
20260507194956 55 278 14.0 24.0 0.00 0.00 0.00 39 1004.4
20260507194453 55 239 17.0 20.0 0.00 0.00 0.00 40 1004.2
20260507193948 53 276 6.0 17.0 0.00 0.00 0.00 40 1004.3
20260507193446 54 325 5.0 13.0 0.00 0.00 0.00 41 1004.5
20260507192942 57 306 13.0 19.0 0.00 0.00 0.00 38 1004.3
20260507192438 57 285 10.0 15.0 0.00 0.00 0.00 38 1004.3
20260507191936 57 287 13.0 14.0 0.00 0.00 0.00 40 1004.2
20260507191431 56 251 9.0 20.0 0.00 0.00 0.00 35 1004.2
20260507190928 57 284 9.0 20.0 0.00 0.00 0.00 40 1004.3
20260507190426 57 252 10.0 13.0 0.00 0.00 0.00 36 1004.2
20260507185925 56 282 12.0 18.0 0.00 0.00 0.00 37 1004.2
20260507185422 57 245 11.0 18.0 0.00 0.00 0.00 35 1004.3
20260507184918 56 303 13.0 15.0 0.00 0.00 0.00 38 1004.2
20260507184416 56 265 6.0 17.0 0.00 0.00 0.00 38 1004.3
20260507183914 57 244 16.0 16.0 0.00 0.00 0.00 39 1004.2
20260507183410 57 287 9.0 13.0 0.00 0.00 0.00 40 1004.4
20260507182908 56 290 6.0 17.0 0.00 0.00 0.00 38 1004.3
20260507182403 56 266 12.0 16.0 0.00 0.00 0.00 40 1004.5
20260507181900 56 256 12.0 16.0 0.00 0.00 0.00 42 1004.5
20260507181356 56 290 12.0 19.0 0.00 0.00 0.00 44 1004.5
20260507180853 56 268 8.0 16.0 0.00 0.00 0.00 46 1004.6
20260507180349 55 299 11.0 16.0 0.00 0.00 0.00 50 1004.7
20260507175845 56 232 8.0 17.0 0.00 0.00 0.00 49 1004.5
20260507175343 56 281 8.0 15.0 0.00 0.00 0.00 48 1004.6
20260507174840 55 297 10.0 14.0 0.00 0.00 0.00 48 1004.5
20260507174337 54 293 8.0 17.0 0.00 0.00 0.00 50 1004.6
20260507173835 54 264 8.0 13.0 0.00 0.00 0.00 55 1004.7
20260507173332 53 260 5.0 17.0 0.00 0.00 0.00 57 1004.8
20260507172828 53 273 8.0 15.0 0.00 0.00 0.00 58 1004.9
20260507172325 52 271 9.0 14.0 0.00 0.00 0.00 59 1004.8
20260507171820 53 296 10.0 14.0 0.00 0.00 0.00 58 1004.9
20260507171318 54 255 8.0 16.0 0.00 0.00 0.00 58 1005.0
20260507170815 53 284 9.0 16.0 0.00 0.00 0.00 58 1005.2
20260507170311 53 307 9.0 14.0 0.00 0.00 0.00 60 1005.1
20260507165807 53 250 10.0 16.0 0.00 0.00 0.00 58 1005.1
20260507165306 52 262 8.0 12.0 0.00 0.00 0.00 61 1005.3
20260507164759 52 251 12.0 12.0 0.00 0.00 0.00 60 1005.4
20260507164257 52 248 8.0 12.0 0.00 0.00 0.00 60 1005.5
20260507163754 52 300 6.0 13.0 0.00 0.00 0.00 63 1005.4
20260507163251 52 302 12.0 15.0 0.00 0.00 0.00 62 1005.4
20260507162747 52 263 10.0 16.0 0.00 0.00 0.00 61 1005.5
20260507162243 52 318 10.0 10.0 0.00 0.00 0.00 61 1005.4
20260507161740 52 254 6.0 13.0 0.00 0.00 0.00 63 1005.6
20260507161237 52 259 3.0 11.0 0.00 0.00 0.00 59 1005.4
20260507160732 52 264 9.0 11.0 0.00 0.00 0.00 63 1005.6
20260507160229 52 282 6.0 11.0 0.00 0.00 0.00 60 1005.5
20260507155725 52 322 5.0 9.0 0.00 0.00 0.00 61 1005.6
20260507155221 52 281 6.0 12.0 0.00 0.00 0.00 62 1005.8
20260507154718 52 308 8.0 15.0 0.00 0.00 0.00 61 1005.8
20260507154216 54 281 10.0 18.0 0.00 0.00 0.00 58 1005.8
20260507153712 55 247 11.0 14.0 0.00 0.00 0.00 56 1005.7
20260507153209 55 303 8.0 15.0 0.00 0.00 0.00 57 1005.6
20260507152705 53 289 8.0 14.0 0.00 0.00 0.00 60 1005.9
20260507152201 52 230 8.0 10.0 0.00 0.00 0.00 62 1005.8
20260507151657 53 253 11.0 13.0 0.00 0.00 0.00 61 1005.7
20260507151154 52 261 9.0 15.0 0.00 0.00 0.00 61 1005.6
20260507150651 53 276 5.0 17.0 0.00 0.00 0.00 63 1005.7
20260507150148 53 277 9.0 15.0 0.00 0.00 0.00 63 1005.9
20260507145643 54 273 9.0 11.0 0.00 0.00 0.00 61 1005.8
20260507145141 53 316 11.0 13.0 0.00 0.00 0.00 63 1005.7
20260507144637 52 269 8.0 12.0 0.00 0.00 0.00 64 1005.8
20260507144136 53 251 9.0 14.0 0.00 0.00 0.00 68 1005.8
20260507143632 52 306 12.0 15.0 0.00 0.00 0.00 65 1005.8
20260507143129 52 282 14.0 16.0 0.00 0.00 0.00 63 1005.7
20260507142624 52 283 11.0 14.0 0.00 0.00 0.00 66 1005.8
20260507142122 53 246 7.0 12.0 0.00 0.00 0.00 63 1006.0
20260507141618 53 277 7.0 12.0 0.00 0.00 0.00 64 1006.1
20260507141115 52 299 10.0 12.0 0.00 0.00 0.00 65 1006.0
20260507140611 52 276 8.0 15.0 0.00 0.00 0.00 65 1005.9
20260507140109 51 231 3.0 14.0 0.00 0.00 0.00 66 1005.9
20260507135606 51 306 8.0 10.0 0.00 0.00 0.00 67 1005.8
20260507135103 52 256 5.0 12.0 0.00 0.00 0.00 67 1005.9
20260507134559 51 303 15.0 18.0 0.00 0.00 0.00 67 1005.7
20260507134055 52 294 11.0 12.0 0.00 0.00 0.00 68 1005.9
20260507133551 51 263 7.0 11.0 0.00 0.00 0.00 70 1005.8
20260507133049 51 303 9.0 11.0 0.00 0.00 0.00 68 1006.1
20260507132546 51 260 6.0 10.0 0.00 0.00 0.00 69 1006.0
20260507132042 51 257 6.0 11.0 0.00 0.00 0.00 67 1006.0
20260507131539 51 278 4.0 9.0 0.00 0.00 0.00 66 1006.1
20260507131037 51 291 6.0 9.0 0.00 0.00 0.00 69 1006.1
20260507130533 50 247 5.0 8.0 0.00 0.00 0.00 69 1006.2
20260507130031 50 246 4.0 8.0 0.00 0.00 0.00 69 1006.1
20260507125529 50 265 4.0 6.0 0.00 0.00 0.00 72 1006.0
20260507125027 50 277 5.0 9.0 0.00 0.00 0.00 70 1006.1
20260507124523 50 280 6.0 9.0 0.00 0.00 0.00 68 1006.2
20260507124021 49 274 4.0 6.0 0.00 0.00 0.00 71 1006.3
20260507123519 49 257 4.0 7.0 0.00 0.00 0.00 71 1006.0
20260507123015 49 287 2.0 6.0 0.00 0.00 0.00 69 1006.2
20260507122510 48 283 4.0 6.0 0.00 0.00 0.00 71 1006.4
20260507122007 48 302 5.0 9.0 0.00 0.00 0.00 72 1006.3
20260507121502 48 276 4.0 7.0 0.00 0.00 0.00 74 1006.4
20260507120958 48 286 4.0 4.0 0.00 0.00 0.00 74 1006.2
20260507120454 48 257 3.0 7.0 0.00 0.00 0.00 73 1006.3
20260507115952 48 229 1.0 4.0 0.00 0.00 0.00 73 1006.4
20260507115448 48 286 3.0 7.0 0.00 0.00 0.00 74 1006.5
20260507114943 48 246 4.0 5.0 0.00 0.00 0.00 75 1006.5
20260507114440 47 243 0.0 2.0 0.00 0.00 0.00 77 1006.5
20260507113937 46 236 6.0 6.0 0.00 0.00 0.00 76 1006.6
20260507113434 46 252 5.0 5.0 0.00 0.00 0.00 78 1006.6
20260507112932 46 254 4.0 7.0 0.00 0.00 0.00 80 1006.7
20260507112429 45 288 4.0 4.0 0.00 0.00 0.00 83 1006.7
20260507111926 44 162 3.0 3.0 0.00 0.00 0.00 90 1006.5
20260507111423 43 126 1.0 2.0 0.00 0.00 0.00 92 1006.3
20260507110919 42 115 2.0 2.0 0.00 0.00 0.00 92 1006.5
20260507110415 42 135 0.0 1.0 0.00 0.00 0.00 91 1006.4
20260507105913 43 84 0.0 2.0 0.00 0.00 0.00 88 1006.4
20260507105409 43 261 3.0 4.0 0.00 0.00 0.00 81 1006.6
20260507104906 44 257 2.0 4.0 0.00 0.00 0.00 81 1006.7
20260507104402 43 295 2.0 5.0 0.00 0.00 0.00 82 1006.6
20260507103858 43 186 1.0 3.0 0.00 0.00 0.00 85 1006.6
20260507103355 44 220 2.0 3.0 0.00 0.00 0.00 80 1006.4
20260507102851 43 211 1.0 4.0 0.00 0.00 0.00 82 1006.6
20260507102348 43 94 0.0 2.0 0.00 0.00 0.00 85 1006.2
20260507101844 43 304 1.0 5.0 0.00 0.00 0.00 79 1006.3
20260507101344 43 328 0.0 4.0 0.00 0.00 0.00 81 1006.5
20260507100842 43 263 2.0 3.0 0.00 0.00 0.00 84 1006.3
20260507100340 43 304 2.0 6.0 0.00 0.00 0.00 80 1006.2
20260507095838 43 247 0.0 10.0 0.00 0.00 0.00 80 1006.4
20260507095334 42 318 3.0 8.0 0.00 0.00 0.00 83 1006.2
20260507094831 41 273 2.0 6.0 0.00 0.00 0.00 94 1006.2
20260507094327 41 204 0.0 2.0 0.00 0.00 0.00 94 1006.2
20260507093825 41 153 0.0 2.0 0.00 0.00 0.00 93 1005.9
20260507093324 41 83 2.0 3.0 0.00 0.00 0.00 92 1006.0
20260507092821 42 81 1.0 3.0 0.00 0.00 0.00 90 1006.3
20260507092317 42 33 0.0 2.0 0.00 0.00 0.00 90 1006.3
20260507091814 42 76 0.0 3.0 0.00 0.00 0.00 87 1006.5
20260507091310 42 250 2.0 3.0 0.00 0.00 0.00 86 1006.3
20260507090805 42 253 3.0 5.0 0.00 0.00 0.00 89 1006.4
20260507090302 42 299 1.0 2.0 0.00 0.00 0.00 93 1006.2
20260507085759 42 107 1.0 2.0 0.00 0.00 0.00 92 1006.2
20260507085256 42 80 0.0 2.0 0.00 0.00 0.00 90 1006.2
20260507084753 42 202 0.0 2.0 0.00 0.00 0.00 86 1006.1
20260507084249 42 243 2.0 2.0 0.00 0.00 0.00 87 1005.9
20260507083747 42 253 2.0 2.0 0.00 0.00 0.00 91 1006.0
20260507083243 42 114 2.0 2.0 0.00 0.00 0.00 89 1005.9
20260507082739 42 301 3.0 4.0 0.00 0.00 0.00 92 1005.7
20260507082235 42 259 2.0 2.0 0.00 0.00 0.00 94 1005.6
20260507081732 42 115 1.0 2.0 0.00 0.00 0.00 93 1005.5
20260507081228 43 305 0.0 1.0 0.00 0.00 0.00 92 1005.7
20260507080725 43 352 0.0 1.0 0.00 0.00 0.00 89 1006.1
20260507080221 43 296 3.0 3.0 0.00 0.00 0.00 89 1006.2
20260507075717 42 279 2.0 2.0 0.00 0.00 0.00 90 1006.4
20260507075213 42 296 1.0 3.0 0.00 0.00 0.00 91 1006.5
20260507074710 42 283 1.0 2.0 0.00 0.00 0.00 90 1006.5
20260507074208 43 103 0.0 2.0 0.00 0.00 0.00 90 1006.3
20260507073704 42 304 0.0 2.0 0.00 0.00 0.00 90 1006.3
20260507073200 42 282 0.0 1.0 0.00 0.00 0.00 93 1005.8
20260507072658 42 266 3.0 3.0 0.00 0.00 0.00 94 1005.9
20260507072155 42 165 0.0 1.0 0.00 0.00 0.00 93 1005.9
20260507071653 43 38 0.0 2.0 0.00 0.00 0.00 91 1005.7
20260507071149 43 298 1.0 2.0 0.00 0.00 0.00 88 1005.9
20260507070646 43 324 5.0 10.0 0.00 0.00 0.00 88 1005.9
20260507070143 43 139 2.0 2.0 0.00 0.00 0.00 91 1006.0
20260507065639 44 154 2.0 2.0 0.00 0.00 0.00 89 1005.8
20260507065136 44 306 4.0 5.0 0.00 0.00 0.00 86 1005.7
20260507064634 44 312 6.0 9.0 0.00 0.00 0.00 85 1005.8
20260507064133 44 294 8.0 8.0 0.00 0.00 0.00 86 1005.7
20260507063630 44 295 5.0 11.0 0.00 0.00 0.00 86 1005.3
20260507063127 44 317 3.0 6.0 0.00 0.00 0.00 87 1005.3
20260507062623 44 287 6.0 8.0 0.00 0.00 0.00 86 1005.5
20260507062121 44 305 6.0 11.0 0.00 0.00 0.00 86 1005.6
20260507061619 44 286 7.0 11.0 0.00 0.00 0.00 85 1005.3
20260507061117 45 319 2.0 4.0 0.00 0.00 0.00 86 1005.4
20260507060614 44 274 4.0 5.0 0.00 0.00 0.00 89 1005.5
20260507060111 44 268 4.0 5.0 0.00 0.00 0.00 90 1005.6
20260507055606 44 302 6.0 9.0 0.00 0.00 0.00 96 1005.5
20260507055102 44 243 2.0 2.0 0.00 0.00 0.00 97 1005.5
20260507054558 45 174 0.0 2.0 0.00 0.00 0.00 97 1005.2
20260507054055 45 219 0.0 2.0 0.00 0.00 0.00 97 1005.2
20260507053553 45 121 2.0 2.0 0.00 0.00 0.00 97 1005.0
20260507053052 45 124 0.0 1.0 0.00 0.00 0.00 97 1004.6
20260507052549 45 119 0.0 0.0 0.00 0.00 0.00 97 1004.9
20260507052046 45 283 0.0 2.0 0.00 0.00 0.00 97 1005.3
20260507051543 45 150 0.0 1.0 0.00 0.00 0.00 97 1005.4
20260507051040 45 6 0.0 1.0 0.00 0.00 0.00 97 1005.3
20260507050536 45 141 1.0 1.0 0.00 0.00 0.00 96 1005.6
20260507050033 45 222 1.0 2.0 0.00 0.00 0.00 96 1005.3
20260507045530 45 109 1.0 2.0 0.00 0.00 0.00 96 1005.2
20260507045027 45 235 0.0 1.0 0.02 0.00 0.00 96 1005.4
20260507044524 46 338 0.0 1.0 0.02 0.00 0.00 95 1005.5
20260507044020 46 193 0.0 1.0 0.00 0.00 0.00 95 1005.3
20260507043516 46 123 2.0 2.0 0.00 0.00 0.00 95 1005.1
20260507043014 46 214 2.0 3.0 0.00 0.00 0.00 94 1005.4
20260507042510 46 272 3.0 4.0 0.00 0.00 0.00 94 1005.4
20260507042005 46 202 0.0 1.0 0.00 0.00 0.00 94 1005.5
20260507041503 46 250 4.0 4.0 0.00 0.00 0.00 95 1005.5
20260507040959 46 309 2.0 2.0 0.00 0.00 0.00 95 1005.6
20260507040455 46 283 0.0 2.0 0.02 0.00 0.00 95 1005.7
20260507035951 47 231 3.0 3.0 0.02 1.39 1.39 95 1005.6
20260507035448 47 314 3.0 5.0 0.00 1.38 1.38 96 1005.4
20260507034945 47 240 0.0 1.0 0.02 1.38 1.38 97 1005.5
20260507034441 47 177 1.0 2.0 0.05 1.38 1.38 96 1005.5
20260507033940 47 113 0.0 1.0 0.05 1.38 1.38 96 1005.5
20260507033437 47 303 5.0 8.0 0.07 1.37 1.37 97 1005.7
20260507032934 47 267 3.0 4.0 0.07 1.37 1.37 97 1005.7
20260507032431 47 262 2.0 3.0 0.02 1.36 1.36 97 1005.5
20260507031927 47 243 0.0 2.0 0.00 1.36 1.36 97 1005.4
20260507031426 47 249 3.0 3.0 0.00 1.36 1.36 97 1005.3
20260507030920 47 242 2.0 3.0 0.05 1.36 1.36 97 1005.3
20260507030418 48 231 1.0 3.0 0.12 1.36 1.36 98 1005.2
20260507025915 48 259 3.0 4.0 0.28 1.35 1.35 97 1005.1
20260507025412 48 283 4.0 4.0 0.35 1.34 1.34 98 1005.2
20260507024910 48 230 2.0 4.0 0.19 1.30 1.30 98 1005.1
20260507024407 49 269 4.0 5.0 0.07 1.28 1.28 98 1005.3
20260507023902 49 253 2.0 4.0 0.05 1.27 1.27 98 1005.3
20260507023359 50 234 2.0 4.0 0.12 1.27 1.27 98 1005.1
20260507022857 50 276 4.0 4.0 0.05 1.26 1.26 98 1004.9
20260507022353 50 294 2.0 3.0 0.07 1.25 1.25 98 1004.9
20260507021849 50 241 2.0 4.0 0.17 1.25 1.25 98 1005.0
20260507021344 50 220 1.0 1.0 0.21 1.24 1.24 98 1004.8
20260507020843 50 147 0.0 1.0 0.14 1.22 1.22 98 1004.9
20260507020339 51 233 0.0 2.0 0.05 1.20 1.20 98 1004.6
20260507015836 51 240 2.0 4.0 0.05 1.20 1.20 98 1004.9
20260507015334 51 293 0.0 1.0 0.07 1.19 1.19 98 1004.9
20260507014831 51 224 0.0 0.0 0.07 1.19 1.19 98 1004.8
20260507014327 51 299 0.0 2.0 0.09 1.18 1.18 98 1005.0
20260507013824 51 261 2.0 2.0 0.12 1.17 1.17 98 1004.8
20260507013321 52 229 2.0 2.0 0.05 1.16 1.16 98 1004.8
20260507012819 52 235 0.0 2.0 0.12 1.15 1.15 98 1005.0
20260507012314 52 250 0.0 2.0 0.21 1.15 1.15 98 1005.0
20260507011811 52 231 2.0 2.0 0.14 1.13 1.13 98 1005.0
20260507011308 52 218 0.0 2.0 0.07 1.11 1.11 98 1005.0
20260507010808 53 233 1.0 1.0 0.07 1.11 1.11 98 1004.8
20260507010304 53 249 2.0 2.0 0.07 1.10 1.10 98 1004.7
20260507005801 53 295 1.0 1.0 0.09 1.09 1.09 98 1004.7
20260507005257 53 231 1.0 2.0 0.12 1.09 1.09 98 1004.9